This demonstration page uses our WeatherBlox Daily Observations layout. Learn more.

Left ArrowRight Arrow

39.01783, -85.05884

Hourly Observations for July 14, 2020

Temp ( °F °C ) Dew Point ( °F °C ) Humidity (%) Winds ( mph kmh ) Pressure ( in mb ) Visibility ( mi km ) Precip ( " mm )
12:52 am 00:52 Mostly Clear 72 22.2 59 15 64 64 N 5 7 29.97 1015 10 16 0.00 0.00
1:52 am 01:52 Clear 73 22.8 59 15 62 62 Calm 29.97 1015 10 16 0.00 0.00
2:52 am 02:52 Clear 69 20.6 59 15 70 70 N 5 7 29.97 1015 10 16 0.00 0.00
3:52 am 03:52 Partly Cloudy 68 20 61 16.1 78 78 N 3 6 29.96 1015 10 16 0.00 0.00
4:52 am 04:52 Partly Cloudy 69 20.6 59 15 70 70 NNE 3 6 29.96 1015 10 16 0.00 0.00
5:52 am 05:52 Mostly Clear 67 19.4 60 15.6 79 79 NNE 5 7 29.98 1015 10 16 0.00 0.00
6:52 am 06:52 Mostly Sunny 66 18.9 61 16.1 84 84 N 6 9 30.01 1016 10 16 0.00 0.00
7:52 am 07:52 Partly Cloudy 67 19.4 62 16.7 84 84 NNW 3 6 30.04 1017 10 16 0.00 0.00
8:52 am 08:52 Mostly Sunny 73 22.8 62 16.7 69 69 E 6 9 30.04 1017 10 16 0.00 0.00
9:52 am 09:52 Mostly Sunny 77 25 63 17.2 62 62 SE 7 11 30.04 1017 10 16 0.00 0.00
10:52 am 10:52 Sunny 79 26.1 64 17.8 60 60 VRB 3 6 30.03 1017 10 16 0.00 0.00
11:52 am 11:52 Partly Cloudy 80 26.7 63 17.2 56 56 VRB 3 6 30.03 1017 10 16 0.00 0.00
12:52 pm 12:52 Partly Cloudy 82 27.8 61 16.1 49 49 S 5 7 30.03 1017 10 16 0.00 0.00
1:52 pm 13:52 Mostly Cloudy 84 28.9 61 16.1 46 46 VRB 6 9 30.03 1017 10 16 0.00 0.00
2:52 pm 14:52 Mostly Cloudy 85 29.4 60 15.6 43 43 NE 3 6 30.03 1017 10 16 0.00 0.00
3:52 pm 15:52 Partly Cloudy 86 30 59 15 40 40 Calm 30.01 1016 10 16 0.00 0.00
4:52 pm 16:52 Mostly Sunny 88 31.1 59 15 38 38 Calm 30.01 1016 10 16 0.00 0.00
5:52 pm 17:52 Mostly Sunny 87 30.6 58 14.4 37 37 VRB 3 6 30.01 1016 10 16 0.00 0.00
6:52 pm 18:52 Partly Cloudy 85 29.4 61 16.1 45 45 SSE 6 9 30.01 1016 10 16 0.00 0.00
7:52 pm 19:52 Partly Cloudy 83 28.3 62 16.7 49 49 SSW 6 9 30.02 1017 10 16 0.00 0.00
8:52 pm 20:52 Partly Cloudy 79 26.1 60 15.6 52 52 Calm 30.01 1016 10 16 0.00 0.00
9:52 pm 21:52 Partly Cloudy 76 24.4 60 15.6 58 58 SSW 5 7 30.02 1017 10 16 0.00 0.00
10:52 pm 22:52 Partly Cloudy 76 24.4 60 15.6 58 58 S 3 6 30.03 1017 10 16 0.00 0.00
11:52 pm 23:52 Partly Cloudy 75 23.9 60 15.6 60 60 Calm 30.03 1017 10 16 0.00 0.00

Powered by AerisWeather